Tracking 29606 objects as of 18-Sep-2024
HD Live streaming from Space Station
objects crossing your sky now

FENGYUN 1C DEB

Track FENGYUN 1C DEB now!
10-day predictions


NORAD ID: 37926
Int'l Code: 1999-025EPB
Perigee: 792.8 km
Apogee: 876.4 km
Inclination: 98.8 °
Period: 101.5 minutes
Semi major axis: 7205 km
RCS: 0.02 m2 (small)
Launch date: May 10, 1999
Source: People's Republic of China (PRC)
Launch site: Taiyaun Space Center, China (TSC)

Note: This is SATELLITE DEBRIS
Your satellite tracking list
Your tracking list is empty




NASA's NSSDC Master Catalog

Two Line Element Set (TLE):
1 37926U 99025EPB 24262.12489429  .00009737  00000-0  45708-2 0  9999
2 37926  98.7597 323.2056 0058021  85.8099 304.3251 14.19366299681766
Source of the keplerian elements: AFSPC